Location: Fredericksburg
(30.2750°N, 98.8720°W)
Time: 23:23:22
(UTC-05:00)

PCSat - Visible Passes

Search period start: 07 July 2015 00:00
Search period end: 17 July 2015 00:00
Orbit: 786 x 795 km, 67.1° (Epoch: 07 July)

Date Brightness Start Highest point End Pass type
(mag) Time Alt. Az. Time Alt. Az. Time Alt. Az.
07 Jul 11.6 00:51:38 10° N 00:54:35 21° NE 00:54:35 21° NE visible
07 Jul 11.9 02:34:26 10° NW 02:35:17 14° NW 02:35:17 14° NW visible
08 Jul 11.8 00:21:34 10° NNE 00:24:18 16° NE 00:24:18 16° NE visible
08 Jul 11.7 02:03:26 10° NW 02:05:00 19° NW 02:05:00 19° NW visible
08 Jul 12.0 23:52:03 10° NNE 23:53:54 12° NE 23:54:03 12° NE visible
09 Jul 11.5 01:32:36 10° NNW 01:34:45 25° NNW 01:34:45 25° NNW visible
10 Jul 11.3 01:01:52 10° NNW 01:04:33 30° NNW 01:04:33 30° NNW visible
11 Jul 11.1 00:31:16 10° NNW 00:34:24 32° N 00:34:24 32° N visible
12 Jul 11.0 00:00:47 10° N 00:04:17 30° NNE 00:04:17 30° NNE visible
12 Jul 12.2 01:44:40 10° NW 01:45:00 11° WNW 01:45:00 11° WNW visible
12 Jul 11.1 23:30:26 10° N 23:34:12 25° NE 23:34:12 25° NE visible
13 Jul 11.8 01:13:25 10° NW 01:14:55 18° NW 01:14:55 18° NW visible
13 Jul 11.4 23:00:18 10° NNE 23:03:52 18° NE 23:04:10 18° ENE visible
14 Jul 11.4 00:42:23 10° NW 00:44:53 26° NW 00:44:53 26° NW visible
14 Jul 11.7 22:30:36 10° NNE 22:32:52 13° NE 22:34:11 12° ENE visible
15 Jul 10.8 00:11:30 10° NNW 00:14:54 39° NW 00:14:54 39° NW visible
15 Jul 10.1 23:40:46 10° NNW 23:44:57 54° N 23:44:57 54° N visible
16 Jul 9.9 23:10:08 10° NNW 23:15:02 53° NE 23:15:02 53° NE visible
